This is the latest recevied weather packets stored in our database for station/object SV9FBP. If no packets are shown the sender has not sent any weather packets the latest 10 day(s).
| Time | Temp. | Humidity | Pressure | Rain* | Wind** | Luminosity | Snow |
|---|---|---|---|---|---|---|---|
| 1777803240 | 17.78° C | 42% | 1011.4 hPa | 0 mm | - | - | - |
| 1777802338 | 17.78° C | 42% | 1010.9 hPa | 0 mm | - | - | - |
| 1777801436 | 17.22° C | 43% | 1011 hPa | 0 mm | - | - | - |
| 1777800534 | 17.22° C | 42% | 1011 hPa | 0 mm | - | - | - |
| 1777799632 | 16.67° C | 42% | 1010.7 hPa | 0 mm | - | - | - |
| 1777798729 | 16.67° C | 41% | 1010.5 hPa | 0 mm | - | - | - |
| 1777797827 | 16.11° C | 42% | 1009.9 hPa | 0 mm | - | - | - |
| 1777796926 | 16.11° C | 41% | 1009.7 hPa | 0 mm | - | - | - |
| 1777796023 | 16.11° C | 41% | 1009.9 hPa | 0 mm | - | - | - |
| 1777795121 | 16.11° C | 42% | 1010.7 hPa | 0 mm | - | - | - |
| 1777794218 | 16.11° C | 45% | 1010.8 hPa | 0 mm | - | - | - |
| 1777793317 | 15.56° C | 44% | 1010.6 hPa | 0 mm | - | - | - |
| 1777792414 | 15.56° C | 43% | 1010.5 hPa | 0 mm | - | - | - |
| 1777791512 | 15.56° C | 44% | 1010.1 hPa | 0 mm | - | - | - |
| 1777790610 | 15.56° C | 44% | 1010.5 hPa | 0 mm | - | - | - |
| 1777789708 | 15° C | 45% | 1010.3 hPa | 0 mm | - | - | - |
| 1777788807 | 15° C | 49% | 1010.5 hPa | 0 mm | - | - | - |
| 1777787903 | 14.44° C | 50% | 1010.4 hPa | 0 mm | - | - | - |
| 1777787001 | 14.44° C | 52% | 1010.4 hPa | 0 mm | - | - | - |
| 1777786100 | 14.44° C | 52% | 1010 hPa | 0 mm | - | - | - |
| 1777785197 | 13.89° C | 54% | 1009.8 hPa | 0 mm | - | - | - |
| 1777784295 | 13.33° C | 55% | 1009.6 hPa | 0 mm | - | - | - |
| 1777783393 | 13.33° C | 55% | 1009.7 hPa | 0 mm | - | - | - |
| 1777782491 | 13.33° C | 60% | 1009.7 hPa | 0 mm | - | - | - |
| 1777781589 | 12.78° C | 62% | 1009.6 hPa | 0 mm | - | - | - |
* Rain latest hour (hover to see other rain measurements)
** Current wind speed in m/s (hover to see current wind gust speed)